Overview Statistics Trail Chart Weather Telemetry Raw packets
 

This is the latest recevied weather packets stored in our database for station/object NL3D. If no packets are shown the sender has not sent any weather packets the latest 10 day(s).

<< 32 33 34 35 36 37 38 >>
Time Temp. Humidity Pressure Rain* Wind** Luminosity Snow
1777476768 4.44° C 55% 1020 hPa 0 mm - 40 W/m² -
1777476464 4.44° C 55% 1020.1 hPa 0 mm - 33 W/m² -
1777476161 4.44° C 56% 1020.1 hPa 0 mm - 32 W/m² -
1777475857 4.44° C 56% 1019.9 hPa 0 mm - 31 W/m² -
1777475553 4.44° C 56% 1020 hPa 0 mm - 30 W/m² -
1777475250 4.44° C 56% 1020 hPa 0 mm - 27 W/m² -
1777474945 3.89° C 56% 1020.1 hPa 0 mm - 25 W/m² -
1777474641 3.89° C 58% 1020.5 hPa 0 mm - 23 W/m² -
1777474338 4.44° C 57% 1020.2 hPa 0 mm - 21 W/m² -
1777474034 4.44° C 57% 1020 hPa 0 mm - 19 W/m² -
1777473733 3.89° C 57% 1020.1 hPa 0 mm - 18 W/m² -
1777473429 4.44° C 57% 1020.1 hPa 0 mm - 14 W/m² -
1777473125 3.89° C 57% 1020.1 hPa 0 mm - 12 W/m² -
1777472821 4.44° C 58% 1020.3 hPa 0 mm - 10 W/m² -
1777472518 4.44° C 57% 1020.2 hPa 0 mm - 9 W/m² -
1777472215 4.44° C 57% 1020.1 hPa 0 mm - 7 W/m² -
1777471910 4.44° C 56% 1020.3 hPa 0 mm - 5 W/m² -
1777471608 4.44° C 57% 1020.4 hPa 0 mm - 4 W/m² -
1777471304 4.44° C 57% 1020.3 hPa 0 mm - 3 W/m² -
1777471000 4.44° C 57% 1020.3 hPa 0 mm - 2 W/m² -
1777470698 4.44° C 57% 1020.6 hPa 0 mm - 1 W/m² -
1777470394 4.44° C 57% 1020.6 hPa 0 mm - 1 W/m² -
1777470091 4.44° C 58% 1020.5 hPa 0 mm - 1 W/m² -
1777469787 4.44° C 58% 1020.2 hPa 0 mm - 0 W/m² -
1777469482 4.44° C 57% 1020.3 hPa 0 mm - 0 W/m² -

* Rain latest hour (hover to see other rain measurements)
** Current wind speed in m/s (hover to see current wind gust speed)